Theta_e
314 314 314 314 314 316 313 311 315 316 316 319 320 321 322 320 321 327 328 325 325 326 331 334 333 334 334 335 336 336 334 326 321 319 319 326 328 326 321 318 320 318 318 317 316 321 322 323 321 321 324 326 329 330 327 326 329 331 335 330 328 330 323 320 321 322 324 322 323 323 324 326 325 324 322 321 325 326 328 333 332 333 335 336 335 335 335 334
314 314 314 314 314 315 313 311 315 316 315 318 321 321 322 321 320 326 329 326 326 324 326 331 332 333 334 335 335 335 331 323 320 319 323 332 327 322 321 318 319 318 317 316 318 322 323 326 322 323 332 332 332 332 327 327 327 330 332 329 330 328 320 318 318 318 319 321 321 321 322 325 324 324 322 322 324 325 328 330 332 336 336 335 334 335 335 334
313 313 314 315 314 315 313 312 314 315 315 316 320 322 322 321 319 324 329 328 328 324 323 329 333 333 333 332 332 331 326 320 320 320 327 331 325 323 321 317 319 318 317 317 319 322 322 326 322 326 336 332 331 332 329 328 328 329 327 329 332 324 318 317 316 317 317 318 321 319 319 321 321 322 323 323 323 324 328 330 334 336 337 337 334 334 334 334
313 311 313 314 314 315 313 314 315 314 315 316 319 322 322 321 318 321 327 329 330 325 325 331 333 331 329 329 330 326 320 322 324 323 328 330 326 326 321 318 319 318 318 317 320 322 321 323 323 326 333 333 330 329 329 328 328 328 326 329 329 322 318 316 315 317 317 318 319 319 319 318 318 319 322 323 322 324 324 327 333 335 336 337 334 334 334 334
311 311 312 314 314 315 313 315 317 315 314 316 319 321 322 321 318 320 324 327 330 327 328 332 332 329 327 328 326 321 322 329 330 325 328 328 325 327 324 319 319 319 318 318 321 322 322 323 325 325 331 335 331 328 327 324 326 328 327 327 323 319 319 315 315 317 316 318 319 319 318 317 317 317 320 321 322 326 323 321 328 331 334 336 334 334 334 334
311 311 312 313 314 315 314 315 317 317 315 315 319 320 322 321 317 319 323 327 330 328 326 328 330 328 327 325 320 319 328 335 330 327 330 326 322 325 326 321 318 319 319 320 322 323 323 324 326 327 331 336 332 330 328 323 326 330 328 325 321 319 317 314 315 316 317 319 318 318 317 316 318 317 319 319 322 326 322 322 327 328 332 336 334 334 334 334
311 311 312 312 313 314 315 315 315 317 316 316 319 321 322 320 315 318 322 326 329 326 323 326 329 327 325 322 318 321 329 331 325 327 331 324 321 324 325 322 318 319 321 321 322 324 326 326 327 328 331 335 334 331 328 325 327 330 329 325 322 320 316 316 316 315 318 319 317 317 318 319 318 317 318 318 322 323 320 324 327 326 332 336 334 334 333 333
311 311 312 312 312 314 314 315 315 315 316 317 319 321 321 320 315 317 320 324 329 327 324 327 330 327 323 320 320 323 326 329 326 326 330 324 320 322 321 320 319 320 321 321 322 324 327 327 326 327 330 333 334 332 326 325 327 328 330 327 323 319 316 317 317 316 318 317 317 318 320 322 321 318 317 318 322 321 319 326 328 326 332 336 336 335 333 333
312 312 313 312 312 314 315 315 315 315 315 316 320 321 321 318 315 317 319 322 326 328 326 326 329 327 324 321 322 325 326 327 326 325 328 324 320 320 319 318 318 320 320 321 322 323 327 328 326 327 330 331 332 330 325 326 328 327 329 326 321 318 317 317 317 318 319 318 319 320 321 325 324 318 318 320 321 319 321 333 333 328 333 336 336 335 332 332
312 312 313 313 312 314 315 315 315 315 315 317 320 321 320 318 316 317 319 322 325 328 329 327 328 326 323 322 324 328 328 326 326 324 325 323 320 319 318 318 318 319 320 322 323 324 327 328 328 329 331 331 330 329 327 329 329 327 328 325 321 322 321 319 318 319 320 318 319 321 322 327 323 318 322 323 319 318 323 333 334 331 332 335 337 335 332 333
312 312 312 312 312 313 315 315 314 315 316 318 320 320 319 318 317 317 318 323 327 329 330 328 328 324 321 323 327 329 327 326 326 323 323 322 320 319 317 317 318 320 322 323 324 325 325 325 326 328 329 331 329 328 328 328 328 327 327 325 323 325 326 323 322 321 321 320 320 319 322 324 321 317 322 323 319 319 323 328 331 334 333 334 337 336 332 332
311 312 312 313 312 311 314 314 313 314 317 319 320 319 319 317 317 317 318 325 329 329 329 329 327 322 320 324 329 328 326 326 325 322 323 321 320 319 317 316 318 321 322 323 325 325 325 324 327 330 329 329 329 328 328 326 325 326 326 327 325 325 328 327 325 323 323 325 322 319 325 325 320 317 320 321 319 321 324 324 326 331 332 333 336 336 333 332
311 312 312 313 311 311 313 314 313 314 316 319 319 318 319 318 317 317 317 323 328 329 329 330 326 321 321 326 327 326 326 325 324 322 321 320 320 319 318 318 320 321 321 323 325 324 325 325 327 331 328 327 328 328 328 325 324 326 325 329 330 328 329 328 326 325 324 326 323 323 330 331 326 322 320 320 319 321 324 323 323 326 327 329 332 336 334 331
312 312 312 312 310 311 314 313 312 314 316 318 319 318 318 318 318 317 317 319 325 329 329 329 325 320 322 326 324 325 326 323 323 322 320 319 319 320 319 320 322 322 321 323 324 324 325 325 326 327 325 326 327 327 326 325 327 328 326 331 335 334 335 330 325 327 325 323 324 326 331 331 331 329 324 321 318 319 322 322 322 323 324 324 328 334 334 331
312 312 312 312 310 312 314 313 313 316 318 318 318 317 317 318 318 317 317 319 324 328 328 327 324 321 324 326 324 325 324 322 323 322 320 320 319 320 320 321 323 322 321 322 323 324 325 325 329 330 326 324 326 327 327 327 328 329 331 335 335 335 338 330 323 326 326 320 320 327 331 329 329 329 325 320 317 317 319 320 322 324 323 323 325 330 334 331
312 313 312 312 312 313 314 313 315 317 318 317 317 317 315 316 317 316 317 319 323 326 326 324 321 321 327 327 324 325 323 322 323 322 320 319 319 320 320 322 323 322 321 321 322 324 325 327 332 331 325 324 327 328 329 332 332 330 335 339 336 335 335 328 322 324 324 320 318 324 329 329 327 324 320 317 316 317 319 319 322 324 324 323 325 329 333 333
312 313 312 313 313 313 314 315 316 317 317 316 316 315 315 315 316 316 316 318 322 326 326 323 319 322 326 323 324 326 323 321 322 321 320 319 319 320 321 322 323 323 323 323 323 325 325 327 331 330 325 326 327 328 332 336 335 332 335 338 336 334 331 328 325 322 321 321 321 322 324 326 326 322 317 316 317 318 319 319 320 323 323 323 325 329 332 334
312 312 312 313 314 314 316 317 316 317 316 315 315 315 315 316 316 317 317 318 324 326 324 322 320 325 327 322 324 326 323 321 321 320 320 320 319 320 321 322 322 323 324 323 324 325 325 324 328 333 332 328 326 329 334 336 334 334 334 335 336 334 331 329 327 324 320 320 322 322 321 322 323 322 319 317 316 316 318 318 318 319 322 323 325 329 331 332
313 312 311 313 314 315 317 316 316 316 315 315 315 314 315 316 316 318 319 321 327 327 325 322 322 329 329 323 325 325 322 321 320 320 319 319 320 320 321 322 323 324 325 325 325 325 325 323 326 333 335 331 327 328 333 335 332 333 333 333 337 337 333 329 325 323 320 318 320 321 321 320 321 321 321 320 317 316 317 318 318 317 318 321 324 327 329 331
313 313 312 314 315 315 315 314 314 314 314 315 314 314 315 317 318 319 318 320 324 326 325 323 324 329 327 324 325 324 322 321 319 319 319 319 319 320 321 322 324 325 326 327 327 324 324 327 328 331 332 331 327 327 330 332 331 331 331 332 334 335 333 330 325 320 319 320 320 319 320 319 320 320 320 320 319 317 317 317 318 317 317 319 322 326 328 330
312 313 313 315 315 314 314 313 313 314 314 314 314 315 316 318 320 320 318 318 320 323 324 322 323 326 325 324 325 322 322 321 320 319 319 319 319 321 323 323 324 327 326 326 327 325 325 329 329 328 329 328 326 327 328 329 330 330 332 333 332 334 332 326 322 319 317 321 323 321 320 320 320 320 320 321 320 318 317 316 316 317 316 318 321 324 326 327
313 314 315 315 314 313 313 312 313 314 314 314 314 315 316 316 317 316 319 321 321 322 323 322 323 324 323 324 324 322 322 322 321 320 319 318 320 323 324 323 325 327 326 326 327 327 328 329 328 326 326 326 326 327 327 329 330 332 335 334 334 335 328 320 318 318 317 321 326 324 321 321 320 320 320 321 320 319 317 317 316 317 316 317 319 322 324 325
314 315 314 314 313 313 312 312 314 314 313 313 313 315 314 313 313 313 319 323 323 322 321 322 324 324 324 325 324 323 323 322 322 321 320 320 322 324 324 324 326 327 326 326 327 329 330 329 327 326 326 326 327 327 328 329 329 333 336 335 336 334 331 327 320 316 317 320 323 321 320 320 318 319 320 319 319 319 319 319 317 317 317 316 317 319 322 324
315 314 312 311 312 313 313 314 314 313 313 313 313 314 313 313 313 313 318 320 321 322 321 322 324 324 325 325 323 323 323 322 321 321 320 321 323 324 325 325 327 328 326 326 327 328 330 328 326 327 327 326 328 328 328 330 331 334 335 335 338 335 333 332 322 315 318 321 320 318 322 326 323 321 321 319 318 318 318 319 318 318 317 317 318 318 319 321
314 312 310 311 312 313 314 314 313 312 313 313 312 312 312 313 313 313 316 317 319 322 321 321 324 324 324 323 323 323 323 322 321 322 321 321 324 324 325 326 327 329 327 326 327 329 329 327 326 328 328 327 329 329 329 331 332 334 334 335 339 337 329 324 322 321 327 333 327 318 328 340 334 326 324 322 320 319 318 318 318 318 317 317 317 317 318 319
311 309 310 311 312 312 314 314 312 312 312 312 311 311 312 313 312 312 315 317 321 324 323 322 325 326 324 323 323 323 325 325 322 321 321 322 323 324 326 327 328 329 327 326 328 330 329 326 326 328 329 330 330 330 330 331 332 335 337 337 337 336 328 322 325 330 335 338 328 318 329 339 333 325 325 325 324 323 320 319 318 318 318 317 316 316 317 318
310 309 310 311 311 312 313 313 312 312 312 312 311 311 312 313 312 312 316 321 324 323 323 323 325 326 324 323 321 323 328 326 324 323 321 323 323 322 327 328 328 328 325 326 330 331 328 327 328 329 329 331 330 331 331 329 333 338 339 339 337 336 332 327 329 335 337 336 328 322 324 328 327 325 323 322 324 324 323 320 319 318 318 319 317 316 316 317
311 311 311 312 312 312 312 312 312 311 312 312 311 312 312 311 311 312 317 325 326 322 323 324 323 324 324 323 320 323 326 324 325 325 321 322 324 323 327 327 328 327 324 326 330 329 327 328 329 328 329 330 329 331 331 329 333 337 335 335 336 336 335 332 332 335 333 334 335 327 322 328 333 333 327 323 323 324 323 321 320 319 318 319 319 317 316 317
311 311 312 313 313 311 311 312 312 311 311 311 311 312 311 310 312 313 316 323 325 322 323 324 322 324 325 323 323 325 324 323 326 325 321 324 325 323 326 326 325 326 325 327 330 328 327 327 327 328 329 329 329 330 332 330 330 331 330 331 332 334 334 333 337 337 330 332 336 329 325 332 336 335 330 325 325 325 323 321 320 319 319 318 319 319 317 317
311 310 311 312 311 310 311 312 311 311 311 311 312 311 310 312 313 316 319 321 322 322 323 324 324 326 326 324 326 325 324 325 326 324 322 324 324 324 326 325 324 326 327 329 329 325 325 325 326 328 328 328 328 329 331 332 329 329 331 330 331 333 334 334 336 338 334 333 334 331 329 331 335 338 333 325 326 325 322 321 320 319 320 320 320 320 319 319
310 311 310 310 310 310 311 311 311 311 311 311 312 311 313 314 313 318 321 319 320 321 322 325 326 327 326 326 328 327 325 326 325 324 324 323 324 325 326 327 326 327 328 328 325 323 325 328 328 327 327 327 329 327 329 330 329 332 335 333 333 334 336 336 332 332 336 335 333 331 328 327 333 339 335 327 326 324 322 323 322 320 321 321 321 321 319 319
310 311 310 309 310 310 311 311 310 311 311 311 312 313 315 314 315 320 319 317 320 319 319 324 327 327 326 327 328 327 326 326 325 325 325 325 326 325 326 327 327 329 330 328 325 325 328 328 327 326 326 327 329 329 328 328 328 331 332 333 335 334 335 337 332 330 335 333 328 326 325 326 329 330 328 325 323 323 322 322 322 322 322 323 326 325 323 321
310 310 309 309 309 309 311 310 310 310 310 311 312 313 315 315 317 319 317 316 319 317 316 322 327 327 326 327 328 327 326 327 326 325 324 325 326 326 326 325 325 329 331 327 325 326 328 327 326 326 326 326 328 329 329 329 328 327 328 332 336 334 335 338 333 331 333 329 323 322 324 329 329 327 326 324 322 322 321 321 323 325 326 328 328 327 328 326
309 308 308 309 307 308 310 310 310 310 309 311 313 313 315 316 318 318 316 316 314 314 316 320 325 328 327 328 327 326 327 327 326 326 326 326 327 328 327 325 324 326 327 325 325 326 329 329 326 326 327 327 326 328 331 330 327 326 328 332 334 333 335 337 334 333 333 326 319 319 326 333 334 331 326 322 321 320 319 320 323 324 328 331 328 325 326 325
308 308 309 309 308 309 310 310 310 309 309 312 312 313 315 317 319 318 317 314 311 313 316 317 323 329 328 327 326 325 327 328 326 326 327 327 328 328 327 326 325 324 325 326 325 325 329 329 325 324 326 327 327 328 328 328 327 329 331 332 333 335 337 335 332 333 332 326 321 322 328 333 331 326 322 319 321 321 318 319 320 320 324 326 327 326 327 327
308 308 309 309 310 310 310 310 310 309 310 312 312 313 315 316 317 317 316 313 312 314 315 317 322 329 329 327 327 326 325 326 327 327 328 328 328 327 326 325 324 323 324 325 325 325 328 327 323 322 324 325 327 327 323 327 330 329 330 331 330 333 338 336 330 327 327 329 328 324 327 330 326 324 323 322 324 322 319 319 320 321 322 322 324 328 330 331
307 308 307 306 308 309 309 309 308 308 310 311 313 314 313 312 313 315 316 314 313 314 316 320 321 323 327 327 326 327 326 326 327 327 327 328 328 326 325 325 324 322 322 323 324 325 326 325 322 322 324 323 325 326 322 326 330 329 330 329 326 329 334 335 331 327 327 331 330 323 325 328 327 329 331 326 325 324 321 320 319 320 321 322 325 329 331 332
306 306 306 304 306 309 309 308 308 309 310 312 314 313 310 311 312 314 316 315 315 316 317 320 318 317 323 326 326 326 325 326 327 327 327 328 329 326 324 325 323 322 321 321 323 323 324 325 321 321 324 323 323 326 325 325 326 328 329 327 328 332 332 331 333 332 330 331 331 326 325 327 327 329 330 324 324 328 326 321 319 318 320 322 325 327 330 332
305 307 306 303 305 309 309 308 308 309 309 311 314 312 309 311 311 312 314 316 317 319 318 317 316 316 319 323 326 325 325 326 326 326 327 327 329 326 323 324 324 322 320 319 323 322 322 326 323 320 321 324 324 325 327 326 323 325 326 325 329 332 330 331 332 333 332 330 332 329 325 329 331 326 324 323 322 325 324 322 320 319 319 322 324 326 332 336
305 307 305 302 304 308 308 307 308 308 309 311 312 311 309 310 310 309 312 315 318 319 318 315 315 316 318 321 325 325 325 326 326 326 327 327 328 326 323 323 323 322 320 319 323 321 319 324 325 320 319 323 327 325 326 326 323 324 326 326 328 326 327 331 330 331 334 332 333 331 328 337 338 325 321 322 321 322 323 323 322 320 321 322 322 326 334 337
305 306 304 302 304 307 307 307 307 307 309 311 310 309 309 309 309 309 310 313 315 316 317 315 315 316 316 319 324 325 326 326 325 326 327 326 327 327 324 322 323 322 320 320 321 321 321 323 322 320 320 325 326 322 323 325 323 324 326 326 327 324 325 331 330 329 331 331 334 333 330 338 341 327 321 320 319 322 324 324 324 323 322 321 320 325 332 335
306 306 304 302 304 306 307 308 308 307 309 310 309 309 309 308 307 309 310 312 313 315 316 315 313 313 313 316 320 322 325 326 325 325 326 325 325 326 323 321 322 321 321 321 320 320 323 322 320 320 321 321 321 318 321 325 322 322 325 326 328 324 323 328 330 329 329 328 330 329 328 336 338 328 324 322 320 322 326 328 328 327 326 325 323 326 330 331
305 304 304 304 304 306 308 309 308 308 309 309 309 309 308 307 307 308 309 311 313 314 316 316 314 313 313 313 315 318 322 325 325 324 325 324 323 324 323 321 322 322 321 322 321 320 322 321 320 320 318 317 317 316 318 322 322 322 324 325 327 325 322 326 329 329 329 327 326 327 328 336 339 330 325 322 317 318 323 327 328 326 327 328 328 328 328 328
302 303 303 305 305 306 309 309 308 308 308 308 308 309 308 307 307 307 308 309 311 314 315 316 316 315 313 313 314 315 317 323 326 324 324 324 322 323 322 321 322 322 321 322 320 321 323 321 319 322 321 321 321 320 320 321 321 323 323 322 325 325 324 328 327 324 326 327 328 329 329 333 340 334 325 321 318 315 317 320 323 324 323 325 327 329 332 332
302 303 304 304 305 306 308 308 307 308 308 308 308 309 308 308 307 308 308 307 309 311 312 313 314 315 314 313 314 313 312 317 323 325 325 324 322 323 322 321 322 321 322 323 320 320 324 321 319 323 325 326 327 326 325 322 321 323 323 322 323 324 325 326 324 322 325 326 325 328 329 332 338 332 323 322 321 316 314 315 318 320 321 325 328 330 333 333
303 304 305 305 305 306 307 307 307 307 308 308 308 308 308 308 308 308 308 308 308 308 309 311 313 314 314 313 313 314 312 312 316 320 324 324 322 322 322 322 322 321 325 326 320 321 324 320 318 322 323 325 327 325 323 322 321 323 324 322 322 324 324 324 325 325 325 324 323 324 324 326 330 327 324 324 323 321 318 315 315 317 320 325 329 331 332 330
303 303 305 306 305 305 306 307 307 307 307 308 308 308 308 309 308 308 308 309 309 308 308 309 310 312 314 314 314 315 313 312 313 316 320 322 323 323 322 322 322 323 326 325 320 321 323 320 319 321 321 321 323 323 322 321 322 322 323 323 322 323 324 324 325 325 324 325 325 324 322 322 322 323 326 324 322 322 320 318 317 317 320 324 327 328 329 328
304 302 303 305 305 305 305 306 307 307 307 307 307 308 309 308 308 308 308 309 308 308 309 310 309 311 313 314 315 315 314 314 315 316 319 322 323 324 323 322 322 324 325 322 319 320 322 321 320 320 321 321 323 324 323 322 322 321 321 323 323 322 323 323 324 324 324 325 325 323 323 323 320 320 322 322 321 321 321 319 316 315 320 326 326 325 325 325
302 302 303 304 305 305 306 306 307 306 306 307 307 307 308 308 308 308 308 308 308 307 308 310 310 309 310 312 315 316 315 316 317 315 317 321 324 324 324 324 324 323 322 321 320 320 322 323 321 320 321 322 322 323 322 321 322 321 321 322 322 322 322 322 322 322 323 324 324 323 324 323 321 320 319 319 320 321 320 318 314 314 320 326 325 325 325 324
303 304 303 304 305 305 306 307 307 306 305 307 307 306 307 308 308 308 308 307 309 308 308 309 309 308 308 309 312 314 314 316 318 316 316 319 322 323 324 325 324 323 322 321 320 320 323 323 321 319 321 321 320 321 321 322 322 321 321 321 321 322 322 322 322 322 322 323 322 322 324 322 321 321 320 320 320 320 320 318 315 316 319 321 323 324 324 323
301 302 302 304 304 304 305 306 306 305 305 306 308 307 306 307 308 309 308 307 309 309 308 308 308 308 308 308 310 313 312 312 314 316 316 319 320 320 320 322 322 323 323 322 320 321 323 323 319 319 321 321 319 319 320 321 321 321 321 320 320 321 321 321 321 321 322 322 322 323 323 321 320 321 322 322 320 318 319 317 315 315 316 318 321 322 321 320
301 302 304 307 306 304 306 306 306 306 306 305 306 307 307 308 308 309 310 308 308 309 308 307 308 309 309 309 310 312 312 311 312 314 315 316 317 317 317 318 320 322 322 321 321 322 323 322 319 319 322 322 319 318 319 320 321 321 321 320 319 320 320 321 321 321 321 321 322 323 322 321 322 321 320 321 319 318 317 315 314 313 314 316 318 318 318 317
Wind_Speed
33 33 33 35 34 34 35 35 35 36 36 35 33 33 32 32 36 37 36 41 43 39 34 32 35 34 34 35 33 32 31 27 23 23 20 27 34 30 31 26 21 25 22 20 21 19 14 13 14 12 11 5 2 1 1 1 2 3 3 2 3 2 1 1 1 2 5 4 3 2 2 6 2 1 0 2 5 3 5 5 4 7 7 9 18 28 31 29
35 35 34 35 35 35 36 36 36 38 37 36 34 33 33 32 36 38 35 39 42 43 41 35 34 35 35 36 34 33 29 26 22 20 27 34 31 24 30 31 22 24 25 24 27 23 13 9 11 9 6 2 1 1 1 1 2 2 2 2 3 2 1 0 1 2 2 6 5 2 3 5 4 3 1 1 1 2 6 3 4 8 8 12 20 27 28 28
37 37 36 35 36 36 37 38 38 39 38 37 36 34 35 33 36 40 35 38 40 42 45 41 37 37 37 36 34 33 27 21 15 18 33 32 26 25 30 32 24 24 27 27 28 24 18 15 12 8 5 2 0 1 1 0 1 1 2 2 3 3 2 3 3 3 2 4 7 4 3 4 2 3 2 2 3 3 5 4 4 7 7 9 14 21 25 24
39 39 38 37 36 37 39 38 39 41 40 38 37 35 35 34 36 42 37 35 40 43 46 42 40 39 37 36 34 32 23 10 9 21 35 30 27 28 29 31 27 25 26 27 25 21 23 21 14 7 4 2 1 1 4 2 1 1 2 3 4 3 3 2 2 3 3 1 6 4 5 4 1 2 3 4 3 3 5 6 8 10 13 12 12 18 21 21
42 41 40 39 37 37 39 38 37 40 41 39 38 36 36 36 36 43 39 33 40 43 42 39 39 38 37 36 35 33 20 3 8 25 35 30 28 29 30 31 29 27 27 26 21 20 25 21 12 6 3 3 4 3 4 4 3 1 2 3 3 3 3 2 0 3 4 2 4 5 5 1 1 1 2 4 3 4 5 6 9 12 15 16 15 17 19 19
42 42 41 40 37 37 39 39 37 38 41 40 39 38 37 37 38 42 39 34 40 43 41 40 38 35 36 38 38 34 18 4 10 28 36 30 28 29 31 32 31 30 29 26 18 18 20 15 10 6 3 4 5 4 4 5 4 2 4 3 3 4 4 3 0 2 2 4 4 3 2 0 2 1 2 5 6 7 6 6 8 13 18 21 20 18 17 16
41 42 42 41 38 38 39 40 39 38 39 40 40 40 38 37 39 42 39 34 40 47 45 44 41 36 35 37 34 23 13 6 7 25 37 34 30 29 32 34 34 32 29 25 16 13 13 12 11 7 5 4 5 4 3 6 4 3 2 5 5 4 5 4 2 1 3 5 2 2 2 1 2 1 1 3 6 7 6 3 10 16 21 22 18 16 17 18
42 42 41 41 39 38 40 40 39 40 40 40 40 39 38 37 39 41 40 35 38 48 49 46 41 37 37 32 22 10 9 8 2 19 40 38 32 32 35 35 36 34 28 24 18 13 10 13 12 7 7 5 5 5 4 6 4 3 3 3 4 3 5 5 4 2 2 1 1 4 3 2 4 3 1 5 7 6 5 5 11 16 17 17 15 14 15 16
41 42 40 41 41 39 40 40 39 40 40 41 39 38 38 36 39 40 40 36 35 45 48 47 41 38 39 25 11 5 13 14 3 19 42 41 36 34 35 34 34 33 25 22 20 14 9 9 9 7 7 5 6 6 5 6 3 6 6 3 2 2 5 5 4 5 3 3 2 3 2 6 5 2 2 7 9 6 7 8 10 13 13 13 12 13 15 14
41 41 41 41 42 41 40 41 40 39 40 42 39 38 39 37 38 40 40 35 35 44 48 48 44 40 35 19 9 6 16 22 11 24 42 41 39 34 33 35 34 32 23 18 17 11 7 7 6 7 6 3 6 7 6 6 3 6 8 4 2 1 2 4 4 5 3 3 3 4 4 6 4 2 3 8 7 5 9 9 9 12 12 12 11 12 15 16
41 41 41 41 43 43 41 42 40 38 40 41 37 37 39 38 38 39 38 31 34 48 52 48 44 42 31 16 11 5 15 25 18 31 42 40 42 35 32 36 36 33 23 17 14 11 13 13 6 5 6 3 5 6 4 4 4 7 8 4 1 2 2 2 4 4 2 2 5 6 4 5 2 2 6 8 4 8 11 9 9 11 10 10 10 10 13 16
41 41 41 41 43 44 42 42 40 39 41 39 37 37 37 38 39 40 38 32 36 47 52 48 44 42 28 12 9 7 16 25 25 37 41 39 43 37 35 38 37 36 31 21 15 15 19 16 6 1 4 5 6 4 3 3 5 5 7 5 2 2 3 5 4 4 4 3 6 6 3 5 5 6 9 9 6 8 10 10 10 10 9 9 9 9 9 14
40 40 41 41 42 44 42 41 41 41 43 41 38 37 35 36 39 41 41 37 40 47 48 46 44 38 20 6 10 15 20 25 31 39 40 39 39 33 34 36 32 33 34 26 17 17 19 14 7 2 3 7 5 3 3 4 4 4 4 3 3 1 4 8 6 6 5 4 6 6 2 5 7 10 12 10 8 9 9 10 9 9 8 8 8 8 8 12
39 40 41 41 42 43 42 42 41 42 44 44 40 37 36 36 38 41 41 39 41 49 50 46 46 33 12 5 11 19 23 28 36 39 39 38 32 27 29 29 22 23 27 23 18 16 17 13 8 3 0 4 4 3 5 4 3 4 3 2 3 3 4 6 6 8 6 4 6 7 4 6 4 9 10 8 10 11 10 10 9 9 8 7 8 9 8 11
39 40 41 42 43 43 42 43 42 42 43 44 42 38 37 37 39 39 39 37 38 49 55 48 46 28 5 4 9 21 28 29 34 38 40 39 33 25 25 24 19 20 22 21 20 17 14 10 7 4 1 1 5 6 5 3 1 3 3 1 3 4 3 5 3 10 9 3 5 7 4 6 6 9 8 5 10 12 10 9 8 9 9 8 7 9 8 9
39 40 42 43 43 43 43 43 44 44 44 44 42 38 36 37 40 40 39 34 31 44 50 38 39 27 5 4 10 21 26 25 31 37 40 41 37 30 27 26 21 22 21 19 22 18 11 5 3 3 1 2 6 7 5 3 1 2 3 3 4 4 3 4 3 7 10 3 3 6 4 4 5 6 5 4 10 11 9 8 9 9 9 9 7 8 9 8
39 40 42 43 44 44 44 44 46 46 45 43 40 36 34 33 37 39 36 29 27 43 47 34 39 25 3 7 12 16 18 23 33 34 36 38 39 38 31 22 17 21 20 18 20 15 8 3 0 2 2 2 5 7 6 4 3 3 3 3 4 4 4 1 2 3 6 6 5 7 6 6 5 4 4 3 6 8 8 8 9 9 8 8 7 7 8 9
39 42 44 43 44 44 44 47 48 46 44 41 37 34 33 30 32 31 28 24 25 37 35 29 36 17 2 9 14 18 22 27 33 32 32 33 37 41 31 19 15 18 16 11 12 10 6 2 1 4 3 4 6 6 7 6 7 7 6 4 2 3 5 5 3 3 6 5 6 7 7 11 9 6 5 6 4 5 7 8 8 9 9 8 8 8 8 9
39 42 45 44 44 44 44 47 47 46 44 39 34 33 29 23 20 19 20 22 19 17 12 13 20 9 7 16 16 21 28 33 32 28 31 31 33 33 26 21 17 16 13 7 9 10 7 3 2 5 6 7 7 7 6 7 10 10 8 6 4 4 5 7 5 4 9 6 5 8 9 10 9 8 8 8 5 5 7 7 7 7 8 8 8 8 9 9
40 43 46 45 46 46 44 44 43 45 44 39 36 28 19 15 10 8 9 11 11 7 9 17 18 8 12 16 18 23 28 32 27 22 31 35 32 25 15 16 13 10 11 10 12 9 6 7 7 8 10 11 11 9 7 7 8 9 7 6 6 5 4 7 6 4 7 7 6 10 9 9 8 9 9 8 7 7 8 8 8 8 7 8 9 10 10 11
42 44 44 46 48 48 46 44 42 44 44 44 39 19 10 13 9 7 7 5 11 9 12 26 18 8 16 18 25 31 23 21 20 20 33 36 32 22 11 12 13 9 10 10 9 6 6 9 10 11 14 14 13 11 9 7 6 6 6 5 6 5 3 3 3 4 5 4 5 7 7 10 10 9 8 7 8 9 11 11 9 9 8 7 10 11 11 9
44 44 47 50 50 48 46 44 43 45 44 42 33 13 8 13 8 12 14 6 7 6 13 27 13 8 19 22 30 37 22 15 16 17 29 33 24 18 13 14 14 11 10 9 6 6 8 9 9 11 12 12 11 10 9 7 4 4 4 4 4 4 2 3 2 3 4 2 3 3 5 9 9 9 9 8 9 10 11 13 11 11 10 9 9 11 10 9
46 48 50 50 48 46 44 44 45 44 39 33 24 12 11 17 14 18 13 2 1 4 12 23 16 14 19 17 26 32 20 16 17 15 27 30 18 15 18 16 14 12 13 13 11 11 9 7 10 10 10 12 11 10 9 5 3 3 4 4 4 4 4 0 3 1 2 2 1 1 4 7 7 7 10 11 11 10 10 12 12 11 12 12 11 10 11 11
51 53 48 47 48 44 43 46 43 37 34 29 22 18 22 25 21 20 12 2 1 5 13 16 12 17 19 19 31 29 17 17 19 20 28 25 14 13 16 15 15 13 13 16 15 11 7 7 11 11 11 13 12 11 10 5 3 4 5 5 4 4 4 3 3 2 2 3 2 2 5 6 5 7 10 9 9 10 9 9 10 11 12 12 11 11 12 13
52 52 45 47 47 43 45 42 32 30 29 20 17 23 29 29 25 19 12 2 2 3 14 13 5 11 16 21 29 21 15 15 14 20 26 23 18 13 10 10 10 12 14 16 14 8 5 9 14 14 13 13 12 11 10 8 5 4 5 7 6 5 4 5 7 5 4 4 3 1 2 5 4 5 8 6 5 9 8 8 11 12 11 10 10 11 11 12
51 48 45 47 44 45 40 22 21 31 22 10 19 30 30 31 31 21 10 1 3 4 13 11 4 13 18 16 16 12 14 10 7 18 24 22 22 16 10 7 4 10 14 12 7 2 4 10 14 14 13 13 12 9 9 8 6 3 5 8 7 6 7 8 7 5 2 3 3 1 3 5 6 5 8 6 6 9 8 10 14 12 10 10 10 10 11 11
48 45 45 44 46 48 28 11 23 30 12 9 29 35 32 37 35 21 7 2 4 6 12 9 4 13 17 16 18 15 13 9 4 11 19 21 20 14 13 11 6 10 10 8 4 3 8 14 14 14 12 11 10 8 8 9 6 3 5 8 9 6 7 8 7 4 3 2 3 3 2 3 6 6 9 8 8 10 8 10 13 13 12 13 12 12 12 12
45 44 44 42 47 42 21 21 29 19 12 25 37 36 38 43 33 15 4 5 5 6 9 7 4 9 11 17 22 14 14 19 13 12 16 23 19 9 12 15 12 14 12 11 8 3 11 16 15 15 11 8 8 6 8 11 7 4 4 6 8 6 7 7 6 3 1 1 3 4 2 1 6 6 6 5 7 10 10 11 13 14 14 15 14 14 13 12
46 44 42 41 40 28 20 28 22 12 26 39 37 38 44 40 23 7 0 4 4 4 6 7 7 8 11 17 17 11 14 16 12 12 14 19 13 3 9 14 14 17 11 7 7 4 8 13 14 15 10 8 9 8 9 11 7 3 3 6 5 4 5 5 5 4 2 1 4 4 2 1 6 6 3 3 5 9 10 10 11 13 14 14 14 13 11 9
48 42 40 39 30 21 21 21 17 24 39 42 38 41 40 26 10 5 5 3 2 2 4 7 8 12 19 18 12 14 18 9 7 12 5 4 3 1 6 8 11 14 5 4 5 3 3 7 10 10 8 8 9 8 7 8 8 6 6 8 8 5 5 4 3 4 2 2 4 7 6 3 4 5 5 5 5 7 8 7 9 10 10 11 11 11 10 9
44 41 40 36 28 26 20 12 23 40 42 41 40 34 24 9 1 6 6 0 2 2 4 8 12 17 25 22 12 15 18 9 12 16 6 3 3 3 8 5 4 9 5 4 3 1 5 8 6 3 4 8 9 6 2 4 9 7 5 5 5 3 4 3 3 3 2 4 3 7 8 6 6 6 4 5 6 6 7 7 9 10 9 9 9 8 9 9
41 42 38 32 29 26 19 19 34 46 44 42 32 17 10 4 3 5 3 1 2 2 2 8 15 21 24 22 15 17 18 11 15 18 12 11 9 9 13 10 8 10 8 9 6 4 7 7 4 1 2 7 11 7 1 3 7 6 5 6 5 1 1 1 1 0 4 3 1 5 6 5 8 8 7 12 14 11 9 8 9 10 10 8 7 7 8 8
40 38 32 29 28 22 25 37 41 40 42 38 20 5 4 4 5 3 2 2 1 0 0 3 14 24 23 19 15 17 18 14 18 18 14 14 12 12 15 14 16 12 8 12 9 6 5 1 2 5 4 6 12 11 5 4 8 8 8 7 6 4 3 5 3 1 3 3 2 3 5 3 6 6 10 16 16 12 10 10 9 8 8 7 6 5 5 6
38 33 28 28 27 25 33 44 41 37 32 21 11 6 6 6 3 3 3 3 1 0 1 1 14 26 20 15 16 17 14 13 19 19 14 14 12 12 11 12 16 9 8 11 5 6 10 3 6 10 5 6 11 10 6 6 6 5 6 6 6 5 4 5 4 2 3 1 2 2 3 4 3 4 8 10 10 9 8 9 8 7 6 5 3 2 3 5
35 31 28 25 26 31 40 41 38 37 25 9 6 8 8 7 4 2 3 4 2 3 1 4 10 22 16 10 15 18 11 11 21 19 12 14 13 13 12 13 16 11 12 13 4 7 11 4 5 8 3 8 11 5 7 9 4 2 3 5 5 5 4 2 3 4 4 2 2 3 3 5 4 8 11 9 9 7 5 6 5 6 5 4 4 3 4 5
33 29 24 22 25 32 38 38 35 33 21 7 5 7 5 3 2 3 5 5 4 6 4 3 4 15 14 8 13 16 6 8 22 18 10 14 14 15 16 13 16 17 15 13 6 6 9 4 5 6 2 8 11 7 9 11 6 2 4 6 5 4 6 3 2 1 4 2 3 3 5 5 4 9 12 10 10 7 4 5 5 6 5 4 5 6 6 6
28 21 15 12 19 29 34 37 32 23 12 6 5 5 2 1 1 2 5 6 5 6 6 2 2 6 10 9 12 15 8 8 18 14 9 13 11 14 16 11 13 16 15 12 4 3 7 3 2 4 5 4 5 8 7 6 5 6 6 7 4 3 3 3 2 0 2 4 3 3 6 5 3 5 7 7 7 7 5 6 6 6 5 6 7 7 7 7
21 15 10 8 11 27 33 36 28 12 5 3 4 3 1 0 1 1 3 6 6 5 4 2 0 1 6 10 11 14 13 11 14 11 10 10 6 12 17 11 11 14 12 11 6 3 8 5 3 2 5 4 4 8 5 3 0 5 6 7 6 2 2 4 3 3 4 5 3 2 5 5 5 5 7 9 9 7 6 7 6 6 6 7 7 8 7 6
16 9 6 5 9 25 31 31 21 6 3 2 3 2 2 1 1 3 1 3 4 6 4 2 2 2 2 8 11 14 14 14 14 11 9 8 5 12 17 11 11 14 12 12 9 6 7 6 1 2 1 5 4 4 9 6 1 3 5 6 5 2 3 4 3 2 3 4 2 2 2 5 6 6 8 15 15 10 7 7 7 8 8 8 7 7 7 5
8 5 3 2 9 26 30 22 11 4 1 2 2 2 1 2 1 4 4 1 2 3 3 3 2 2 1 2 8 11 10 14 16 10 7 9 8 12 17 13 13 16 14 11 8 7 5 4 5 1 2 4 6 6 11 12 7 6 8 8 6 3 2 2 2 2 3 4 3 2 3 5 6 6 10 15 14 10 7 8 8 8 8 9 8 7 6 6
3 5 2 1 9 24 26 13 4 3 2 1 2 2 2 3 1 4 7 5 3 2 3 6 4 3 1 0 5 8 7 11 15 9 6 10 9 9 15 15 16 17 14 10 8 7 4 3 7 6 3 8 8 4 5 10 10 8 7 8 8 6 4 3 4 3 3 4 4 4 4 7 5 4 7 10 10 8 7 8 8 8 9 10 8 8 7 7
3 4 2 4 11 17 16 6 1 3 1 1 2 2 4 4 3 3 5 5 4 3 3 5 5 3 2 1 1 3 4 8 13 10 7 11 12 10 14 18 18 17 14 10 9 6 4 5 7 6 4 4 3 2 1 5 8 5 4 5 6 5 6 7 7 5 4 4 2 2 3 7 6 4 5 7 7 7 7 8 8 7 9 8 7 7 6 6
4 4 4 8 10 6 5 5 3 3 1 1 3 3 3 4 3 3 4 5 4 3 3 3 4 3 2 1 1 3 3 4 11 11 8 13 13 9 14 19 18 17 13 9 10 5 4 6 6 4 2 2 3 3 4 3 5 4 5 6 8 9 9 6 4 4 5 5 4 2 5 6 6 4 3 3 1 1 2 6 7 5 5 5 6 6 6 6
4 4 4 6 6 1 1 4 4 4 2 2 4 4 3 3 3 2 4 4 3 2 2 2 3 3 3 3 2 3 4 1 9 10 6 9 8 7 16 22 20 18 12 8 10 7 3 6 7 7 4 1 2 1 1 1 5 7 8 9 11 13 11 5 2 3 3 5 7 6 6 6 5 4 4 5 5 3 1 3 6 6 5 6 5 5 6 6
4 4 3 3 2 2 1 2 4 5 5 3 4 5 4 3 3 3 4 5 3 3 3 2 2 4 6 5 4 4 4 3 4 5 2 5 5 6 16 23 21 17 10 10 12 6 4 7 9 10 10 8 9 9 7 7 7 6 9 13 14 15 14 9 4 4 5 5 7 7 7 5 6 6 5 5 3 1 2 3 4 5 5 6 6 6 7 6
3 3 3 3 2 2 1 2 2 5 4 4 4 3 3 4 3 3 4 5 3 4 4 2 2 4 8 8 5 3 2 4 2 1 1 4 4 5 15 21 20 17 13 16 17 7 4 6 9 11 13 12 9 6 6 8 7 7 11 15 14 11 12 10 6 8 9 4 4 8 7 5 7 7 6 7 5 4 5 4 3 3 4 5 6 6 6 6
3 2 3 4 2 2 1 2 3 4 3 4 3 2 3 5 4 3 3 3 2 2 3 2 3 3 7 8 5 4 3 3 2 1 1 2 1 5 15 18 17 17 14 15 16 8 4 6 10 12 14 11 6 6 9 11 11 13 14 16 15 11 11 12 11 13 10 5 6 14 12 11 14 10 8 10 7 6 6 5 5 5 6 6 5 6 6 6
2 2 1 2 2 3 1 0 2 5 6 4 3 3 5 5 4 3 2 2 3 2 1 3 3 3 4 4 3 5 5 3 2 1 2 2 2 7 12 13 14 16 13 10 10 7 5 7 10 12 12 9 8 9 11 12 12 13 15 17 18 17 16 17 17 17 13 9 14 19 15 18 18 11 11 13 7 5 7 7 6 4 4 5 6 6 7 7
3 3 1 3 3 4 3 2 4 7 7 5 3 4 6 6 5 3 2 3 2 1 1 3 2 2 3 2 2 5 7 3 3 3 1 2 1 6 10 9 9 11 12 10 8 5 5 6 9 11 9 7 9 11 14 14 12 12 15 17 18 19 20 20 19 19 15 12 17 19 16 20 17 10 12 12 7 7 7 3 1 2 5 8 8 8 9 9
3 3 1 3 4 4 3 3 5 7 5 2 3 3 4 7 6 3 2 3 3 2 2 3 4 5 4 3 3 4 5 2 2 5 5 3 1 1 5 6 5 8 11 9 5 5 6 7 9 10 7 5 9 11 14 16 15 14 16 17 17 17 17 18 17 17 14 14 20 21 18 20 12 7 9 9 8 8 7 5 5 7 9 10 8 9 10 9
2 3 4 5 4 3 3 2 4 6 4 2 3 4 4 6 7 5 2 2 4 5 5 5 6 5 5 4 2 2 1 2 3 3 3 4 2 2 1 0 3 9 11 6 4 6 8 7 8 9 7 7 9 11 13 14 13 13 15 17 17 17 18 19 19 18 16 17 20 19 18 18 7 7 8 8 8 9 10 11 10 9 10 10 10 11 11 10
3 2 4 5 4 2 2 2 4 4 3 1 2 3 4 6 8 7 3 1 2 5 7 8 8 5 4 4 3 3 2 1 1 3 3 4 5 4 3 4 3 6 10 8 6 6 7 7 6 9 10 8 8 10 10 9 8 10 14 19 23 22 20 18 17 18 18 17 16 15 17 13 5 8 10 9 8 10 11 11 11 10 10 10 11 12 11 10
Wind_Direction
249 244 238 239 236 233 235 234 233 234 232 232 229 228 230 227 219 214 211 215 224 226 226 222 213 210 205 200 196 195 192 185 184 185 195 202 199 198 189 180 168 170 173 170 163 150 142 142 147 144 133 117 40 113 38 19 62 54 88 130 245 219 175 255 283 203 149 140 194 244 96 118 149 11 65 34 54 94 90 72 64 49 52 95 127 141 146 149
250 246 239 238 236 232 234 233 231 233 232 230 228 226 228 227 220 214 209 212 220 225 228 227 215 209 204 198 193 190 184 179 182 189 205 204 199 199 189 183 173 172 172 166 161 152 142 141 137 123 105 86 359 45 352 347 68 82 126 135 236 190 157 284 74 1 102 147 157 130 100 110 150 163 88 98 187 141 107 80 76 77 74 98 123 137 144 149
249 247 242 236 236 232 233 230 228 232 231 230 227 224 227 228 222 214 206 208 215 220 223 225 218 208 199 192 186 182 174 173 184 204 210 204 200 198 189 185 180 175 175 169 165 158 146 142 138 117 74 82 66 47 137 158 35 145 123 128 241 178 87 10 51 41 8 149 135 112 88 84 112 141 114 155 185 179 158 155 112 122 137 128 133 140 145 151
248 248 243 237 235 231 231 227 224 230 230 229 226 224 226 225 221 214 208 205 210 215 216 217 216 209 194 184 182 172 157 165 203 211 208 201 201 198 189 187 183 179 178 171 167 159 146 141 141 128 90 117 178 129 151 193 197 155 130 165 226 144 96 352 30 40 344 82 123 119 84 68 341 112 133 138 132 255 225 192 174 165 159 152 150 149 151 153
247 247 243 238 234 229 230 225 221 227 228 226 223 224 224 222 221 214 209 206 206 209 211 213 214 207 191 181 177 161 146 165 200 203 205 197 197 196 188 185 181 181 176 169 167 156 149 145 139 131 101 135 168 155 167 188 147 150 225 209 225 110 116 226 84 20 331 18 76 88 92 128 275 75 159 141 150 239 229 203 188 168 160 160 159 156 157 159
245 245 241 238 233 228 228 225 221 223 226 224 221 222 221 222 221 213 209 207 204 204 209 217 217 206 193 183 171 159 161 184 170 195 201 190 189 190 184 182 180 180 174 167 161 151 151 148 142 152 137 135 173 166 166 173 122 146 234 258 239 127 133 193 134 341 1 67 74 104 131 201 51 353 222 163 188 224 221 209 178 165 163 160 157 159 164 169
243 242 238 237 233 228 227 224 220 220 224 222 218 219 220 222 220 212 208 206 204 202 206 213 212 203 194 181 169 167 189 202 170 194 194 183 182 183 181 184 181 178 171 164 154 148 155 155 158 162 142 137 175 166 161 167 127 123 201 245 229 146 134 152 147 276 51 87 140 121 76 56 119 217 245 187 223 233 237 203 145 154 157 155 159 168 174 177
241 239 236 235 231 228 226 224 220 220 223 220 216 217 220 220 216 211 207 204 202 200 204 205 203 197 189 179 171 180 208 205 227 192 186 179 176 178 179 182 182 178 171 166 164 157 152 160 166 156 153 168 172 168 161 151 151 182 184 245 236 141 146 153 149 171 78 111 152 68 51 259 214 195 193 238 244 223 202 137 127 143 150 159 169 174 178 181
239 235 232 232 229 226 225 223 220 220 222 220 215 214 217 217 212 210 206 205 202 200 201 201 202 194 186 184 178 193 198 198 236 184 181 175 171 177 179 178 180 179 172 168 170 161 148 164 171 155 158 171 162 168 170 153 180 196 181 214 235 154 164 159 165 180 187 206 112 72 301 270 246 221 236 248 244 211 164 132 135 145 154 170 175 177 179 181
237 233 230 230 226 224 221 219 217 218 221 219 213 211 215 214 210 209 206 205 206 204 199 197 199 189 182 188 190 202 196 196 204 179 176 171 170 172 176 179 180 178 170 165 173 169 152 154 158 143 131 136 163 162 172 174 181 178 170 179 184 183 179 166 192 199 190 211 169 164 249 264 258 240 240 266 255 175 143 139 149 153 165 178 179 184 182 181
236 232 229 229 227 224 219 216 216 216 218 217 211 209 212 211 208 207 206 204 205 201 193 189 188 181 180 192 198 200 184 192 192 174 172 170 169 168 171 177 180 176 166 161 174 164 141 141 144 143 139 146 155 150 185 186 154 166 165 160 176 355 337 222 214 209 159 233 198 172 242 264 257 221 215 251 248 144 144 155 161 164 176 182 182 187 184 187
234 231 228 227 226 223 218 215 215 214 215 213 208 206 208 209 206 205 204 200 198 193 183 180 180 176 178 199 213 185 173 186 180 170 172 170 169 170 171 174 176 175 169 162 161 147 136 137 128 118 166 144 131 144 204 175 123 143 153 157 191 357 299 247 233 214 173 225 199 156 308 271 221 223 218 225 205 149 153 166 172 177 182 183 184 188 190 193
231 229 226 225 224 221 216 212 213 213 214 212 205 203 204 205 205 203 202 199 196 190 180 179 177 172 175 209 205 181 174 180 174 169 170 170 169 171 171 170 170 174 174 163 148 143 136 126 105 91 153 132 141 177 137 114 90 105 120 131 149 53 266 232 217 209 188 204 177 144 281 253 217 227 224 218 196 160 164 180 184 185 186 187 185 187 196 195
227 225 223 223 221 217 213 210 210 211 213 211 203 200 199 199 201 199 199 200 199 192 185 182 175 170 180 214 191 181 173 170 169 167 168 166 161 159 164 164 163 172 173 157 138 136 129 111 91 86 143 120 147 160 109 84 68 112 110 78 151 174 254 245 210 189 187 214 160 144 238 247 241 244 239 224 190 174 183 192 191 190 192 192 187 186 195 196
223 221 220 220 215 211 210 207 205 204 205 203 198 196 196 199 199 196 197 200 203 192 181 175 169 164 189 245 193 174 164 162 166 168 168 163 153 150 157 154 151 161 166 154 138 132 126 109 87 98 315 87 125 123 118 95 48 135 147 220 213 193 258 296 224 178 179 230 160 149 232 260 255 252 256 220 178 179 190 196 197 196 197 196 190 187 192 198
219 217 216 215 209 206 205 202 200 198 198 196 195 195 197 201 199 200 198 198 210 190 170 163 164 163 176 203 179 167 161 163 170 170 169 165 156 152 152 144 140 146 150 147 142 139 138 114 68 118 118 165 141 128 124 108 130 221 171 179 211 194 239 318 312 191 169 156 196 191 227 269 269 259 259 200 171 174 186 198 201 199 203 200 193 189 188 194
216 213 211 209 205 202 201 199 196 195 196 194 194 193 193 199 198 200 198 200 213 187 168 163 165 166 184 154 164 171 164 165 169 168 168 167 160 152 146 139 136 137 133 135 144 148 151 151 284 127 99 183 157 137 144 148 170 212 189 181 226 198 191 229 301 244 159 146 209 224 236 244 267 291 285 240 181 173 187 203 204 201 207 204 197 193 188 191
213 210 207 206 201 197 197 195 191 191 192 190 190 188 184 188 190 189 189 194 198 179 170 167 161 162 235 164 167 172 165 162 164 164 165 165 158 153 148 140 136 135 130 131 147 154 162 190 182 131 144 187 175 160 163 172 173 182 186 187 235 205 196 204 219 206 170 170 204 216 242 242 253 277 278 276 246 201 208 209 209 206 203 204 201 196 195 195
208 207 203 201 197 193 189 186 185 185 185 181 177 173 169 170 174 178 179 182 189 181 163 160 165 164 165 173 173 164 161 158 158 160 160 158 155 151 144 140 140 142 146 151 167 173 162 149 168 160 172 180 178 176 166 173 175 175 176 172 181 196 213 211 218 207 174 172 213 213 232 241 247 254 251 264 257 231 236 232 227 219 204 203 203 200 201 200
205 202 198 196 193 188 182 178 179 179 176 171 164 159 159 157 161 180 177 183 214 219 138 156 180 166 138 162 157 147 152 155 155 160 161 157 150 143 136 141 143 150 162 165 168 173 157 163 190 182 176 176 174 179 183 181 168 162 166 175 192 200 227 214 220 233 167 162 223 222 232 249 248 247 243 246 241 230 238 239 233 230 214 201 203 205 202 204
201 196 193 191 186 181 177 174 176 176 173 169 164 163 172 172 181 171 152 212 244 246 167 165 177 146 140 156 150 144 146 154 158 164 163 157 148 144 149 154 153 166 173 160 147 145 168 186 195 184 175 172 173 182 199 198 154 144 164 181 206 208 232 241 205 196 162 157 245 232 238 254 253 253 251 239 232 227 226 228 227 227 223 207 202 207 205 209
196 190 185 182 178 175 174 174 177 178 174 171 169 180 182 166 162 142 146 198 234 245 183 166 152 113 147 157 155 149 142 150 160 165 163 158 155 158 162 166 168 167 159 146 129 151 192 198 182 175 169 163 170 184 203 215 168 134 149 166 211 209 172 350 3 168 166 173 260 250 243 255 255 256 256 241 233 230 223 223 223 218 219 216 203 203 206 211
190 184 176 174 174 174 176 175 175 175 173 172 177 192 164 146 124 117 125 115 193 224 185 164 145 140 157 156 155 152 143 151 158 172 172 164 166 166 161 171 170 157 158 164 166 174 193 191 164 161 161 160 169 186 199 217 192 156 145 158 220 206 154 236 300 245 195 199 227 315 289 269 257 255 255 242 234 237 229 223 225 216 213 215 205 198 199 203
183 177 171 170 172 173 174 171 168 168 171 175 182 179 157 151 137 109 94 62 253 213 178 169 152 154 162 154 159 162 153 160 162 170 177 168 159 159 162 168 162 159 172 171 170 173 169 154 152 154 164 166 169 186 196 197 206 205 178 174 206 200 168 166 173 160 351 322 315 11 324 286 250 241 250 245 239 244 236 226 232 227 220 218 209 203 201 200
170 168 167 169 170 168 167 166 163 163 169 169 166 160 151 157 153 114 81 86 233 194 168 177 196 160 153 150 164 164 139 158 170 165 173 167 152 152 163 168 161 167 170 164 164 165 150 150 156 161 170 173 174 187 193 178 185 229 205 190 190 172 136 121 130 110 38 329 296 55 306 288 290 259 254 257 253 247 239 226 231 230 223 223 219 214 211 207
162 161 163 167 169 168 166 165 162 160 161 155 148 147 145 156 157 127 81 53 203 184 166 172 202 165 155 152 162 144 131 160 176 161 167 164 156 154 159 170 173 166 160 154 157 157 159 160 161 167 170 173 181 193 191 165 154 221 219 190 181 146 119 129 139 122 111 249 275 99 179 265 311 294 263 264 256 248 239 230 233 231 223 222 220 218 216 213
160 159 164 171 172 171 167 150 158 158 155 157 151 144 141 148 148 125 86 253 207 166 160 161 179 172 167 160 156 147 148 145 108 170 171 159 158 157 159 168 167 162 153 144 174 201 163 162 166 171 169 174 189 194 178 156 144 218 222 179 176 154 135 148 143 136 175 211 321 16 124 262 291 270 260 259 259 260 249 237 239 233 228 225 220 218 215 211
158 160 167 171 169 168 160 145 155 162 159 154 147 141 138 140 137 115 89 218 183 138 152 156 149 164 161 158 161 157 146 140 144 186 179 161 160 158 169 175 161 156 160 164 181 175 155 166 170 167 171 183 188 183 164 157 162 233 222 171 177 163 144 147 129 115 100 89 303 304 82 277 272 263 269 258 251 261 249 236 237 232 229 227 224 221 215 211
160 164 165 163 162 162 151 149 156 160 152 148 142 138 134 129 123 104 191 208 159 132 152 148 146 157 152 156 163 150 139 148 160 169 168 166 169 164 167 168 150 148 159 161 161 157 161 172 166 161 180 188 180 185 172 167 177 208 136 105 95 94 95 107 117 105 66 117 236 241 144 222 270 258 244 232 234 247 245 236 234 230 228 227 227 226 219 212
162 164 163 161 160 155 143 142 145 147 148 145 141 135 127 118 111 148 200 210 130 166 169 152 158 158 153 156 161 151 148 151 142 138 138 163 170 32 119 129 134 140 122 62 124 156 146 158 165 168 184 173 168 185 173 165 162 125 93 81 68 53 58 63 71 87 97 255 227 203 180 176 277 264 218 211 225 230 234 244 245 240 235 231 229 228 219 209
162 162 164 165 161 153 142 127 139 145 146 144 142 134 122 110 137 169 186 231 91 202 175 155 158 155 156 158 155 154 150 140 145 147 144 133 130 118 121 112 125 132 110 83 118 149 131 158 186 185 170 149 152 175 137 145 152 117 92 107 93 29 25 35 14 53 194 250 224 190 178 172 235 260 242 246 263 246 225 232 244 243 240 237 230 226 219 211
158 159 160 158 155 151 143 142 145 145 145 144 142 137 125 134 223 185 169 80 128 212 184 163 160 155 159 159 153 156 150 143 159 158 158 160 155 161 159 163 161 147 153 162 166 163 149 173 187 103 192 158 152 167 96 132 161 132 125 136 126 97 31 189 239 338 217 245 259 179 167 193 242 258 268 267 266 257 234 230 240 240 239 244 241 234 224 214
154 151 146 145 150 150 141 143 145 144 146 146 142 136 139 163 202 180 136 135 142 226 310 192 160 153 158 160 155 158 152 153 165 163 164 164 160 172 174 170 167 163 163 160 157 152 147 274 193 160 215 184 165 174 169 170 175 160 152 153 155 155 178 199 190 268 230 237 273 175 164 235 276 269 249 252 258 260 246 234 236 235 225 221 227 231 214 196
148 142 136 141 153 157 149 145 146 146 146 143 137 143 165 187 177 114 138 176 171 176 305 282 158 155 159 162 157 156 153 159 166 163 165 164 164 176 173 172 176 161 132 144 150 163 160 197 191 176 196 181 176 181 155 132 152 162 147 142 160 165 177 195 180 195 212 219 276 217 177 202 219 248 237 236 255 271 258 236 230 231 215 187 178 190 175 176
139 135 131 134 147 158 156 151 150 149 143 126 131 157 179 190 168 123 161 160 137 171 326 350 157 157 159 160 160 163 161 162 163 163 170 171 171 172 164 175 182 161 141 154 170 174 170 195 187 171 172 162 167 169 124 118 133 205 130 130 187 186 146 148 187 179 149 121 238 227 232 211 211 274 278 264 258 267 275 263 238 228 216 163 156 188 198 201
128 125 123 125 139 154 158 157 154 150 145 132 143 169 190 189 170 170 158 146 156 158 129 11 171 162 160 156 164 172 175 161 163 163 173 175 175 174 169 176 178 167 163 161 149 168 172 188 180 153 136 169 165 159 156 155 157 169 160 169 197 172 122 127 226 156 111 168 231 204 248 287 313 288 286 283 273 275 293 280 250 236 234 202 201 215 222 227
119 116 108 104 137 153 156 156 154 146 139 148 156 167 195 354 253 194 142 138 145 134 126 138 232 169 160 154 164 170 152 149 166 164 167 174 179 177 171 172 175 173 171 157 129 179 156 122 233 158 137 178 153 130 157 180 147 145 183 178 138 76 95 133 193 125 147 220 257 206 228 273 300 267 295 310 282 266 256 248 246 248 246 234 235 236 232 233
110 110 83 47 142 156 154 155 156 138 95 131 135 136 167 155 241 304 122 138 134 123 124 135 23 340 158 155 162 165 151 152 169 163 161 171 175 173 170 169 175 176 168 149 133 158 137 100 324 222 150 161 100 107 151 252 107 144 176 166 138 142 193 164 167 198 198 217 271 250 224 233 217 229 287 289 266 248 237 235 237 236 228 228 239 247 251 253
106 108 74 21 155 160 156 152 150 120 57 129 127 139 172 129 61 3 15 163 133 123 124 99 48 3 164 160 157 163 162 162 167 162 165 173 165 174 176 171 172 174 163 149 147 156 139 120 164 284 184 157 125 140 182 197 32 101 149 167 168 161 167 172 171 170 184 197 239 269 235 240 230 213 234 252 257 247 217 214 225 222 217 221 228 236 242 240
106 99 64 3 151 156 153 142 131 114 117 147 124 130 121 106 88 12 11 50 107 110 133 132 115 51 356 171 154 162 167 162 166 169 172 171 158 174 185 176 167 169 158 143 143 149 136 121 142 135 331 174 173 200 195 183 170 163 169 179 186 165 107 161 192 144 146 170 195 216 238 255 250 213 214 236 253 249 209 196 215 218 216 220 222 220 216 209
88 93 69 259 156 148 142 126 113 148 123 91 108 103 100 112 111 15 15 35 62 37 106 121 120 103 69 160 152 162 165 161 169 171 168 174 168 176 189 181 166 163 155 140 146 157 149 127 138 142 178 189 188 213 205 188 182 176 181 182 181 173 134 157 215 192 160 186 183 180 242 267 256 214 220 233 243 242 210 187 200 216 217 219 220 216 205 193
95 100 89 176 162 149 137 116 118 141 93 111 132 110 114 108 59 12 7 25 56 41 57 99 112 105 91 352 53 127 145 163 174 173 167 182 188 187 183 176 165 163 160 150 154 152 100 109 130 139 167 178 190 296 297 176 167 158 190 185 172 175 165 181 212 197 181 206 156 125 272 274 257 226 235 240 233 232 210 179 184 211 217 216 216 210 202 198
92 93 97 145 161 159 133 117 112 114 76 88 106 89 99 97 53 30 25 24 41 45 45 94 122 114 117 217 3 49 62 158 180 181 171 182 194 187 167 164 159 164 169 155 153 147 83 112 123 108 91 39 12 326 1 66 132 157 203 188 174 193 195 189 189 160 181 202 165 182 256 269 273 260 262 297 341 216 187 156 157 172 192 196 189 184 187 199
102 91 83 137 160 281 82 133 141 144 127 96 110 113 100 87 78 71 62 47 29 44 75 94 109 115 136 146 102 56 36 102 189 192 176 179 191 157 157 165 162 169 182 164 161 173 150 149 142 131 145 82 50 216 307 218 196 193 202 196 190 196 190 170 126 134 202 209 168 181 234 248 275 298 332 2 35 71 88 147 149 147 169 187 184 190 201 204
115 95 69 111 108 23 33 165 154 142 136 130 119 116 107 82 65 69 87 77 32 32 88 89 78 107 120 113 92 76 43 48 180 199 139 158 170 142 164 173 168 173 181 149 152 160 127 154 163 158 168 174 180 191 189 189 196 189 190 194 198 195 184 183 185 184 224 211 161 188 233 252 294 314 322 329 347 156 213 220 187 161 183 202 199 210 213 205
120 106 126 116 43 30 336 325 108 123 133 131 112 85 88 96 94 77 80 84 51 38 62 50 34 98 122 121 104 108 75 47 82 319 39 149 156 152 172 176 173 176 165 146 151 142 100 167 179 177 185 186 183 175 127 130 155 175 183 189 197 192 179 184 200 212 218 184 168 228 236 249 271 269 269 276 261 236 236 233 223 207 222 228 217 220 222 216
92 73 129 123 106 138 307 347 85 113 129 125 106 79 77 93 114 91 47 71 98 75 59 51 38 88 136 140 120 122 127 71 70 333 319 193 161 153 171 177 176 172 153 148 160 141 109 181 182 182 194 190 159 125 124 144 171 184 183 186 192 184 174 188 208 218 207 163 227 239 222 227 239 224 233 254 240 230 244 236 229 225 222 226 227 236 239 235
95 78 69 66 104 138 126 231 145 123 125 113 85 124 123 107 112 95 56 77 88 78 66 62 44 48 111 139 130 135 139 107 106 163 311 269 158 141 161 178 180 165 144 154 178 148 124 180 182 182 190 179 151 144 151 166 181 187 186 188 191 186 186 198 212 218 203 188 232 236 221 232 238 211 215 240 234 221 226 217 213 205 208 225 224 229 233 232
93 95 42 33 82 124 120 142 135 119 127 121 95 144 146 130 126 114 102 104 80 33 69 73 86 86 71 43 68 141 154 150 157 179 248 280 175 146 157 172 185 171 155 166 187 159 146 172 171 173 178 175 171 163 161 170 180 189 194 195 193 192 197 205 213 220 214 213 239 245 238 243 241 205 207 229 232 236 245 254 216 179 218 227 214 216 224 225
106 129 161 65 82 119 116 111 120 126 138 117 104 145 142 132 137 126 110 131 132 153 150 107 114 121 105 52 51 131 152 102 117 164 180 191 328 120 161 161 172 174 165 167 180 185 185 174 158 159 167 192 193 177 170 174 181 189 197 199 195 194 203 212 218 222 217 222 238 244 247 252 243 179 192 216 220 233 252 260 234 215 221 220 209 219 226 223
109 162 131 101 91 100 104 91 109 133 152 124 118 136 130 140 149 130 117 179 149 151 165 134 112 111 117 99 77 161 167 40 65 98 136 143 92 49 143 191 178 170 163 153 164 188 191 173 151 153 176 210 200 182 175 173 177 192 199 199 195 194 201 208 214 215 206 213 231 237 245 252 233 157 193 211 203 219 231 228 223 221 218 209 208 221 224 221
33 87 89 96 95 83 117 111 93 127 166 166 105 120 129 156 158 136 116 289 143 142 149 136 122 115 126 143 191 222 205 158 108 56 61 89 79 77 78 11 359 164 165 163 169 179 174 161 153 163 185 206 183 161 155 145 163 204 207 197 195 199 203 207 217 221 211 208 219 227 236 239 169 160 210 213 193 210 224 219 216 220 216 209 214 220 220 219